Flag for U.S.A. Weather past 2 weeks in Fort Lauderdale, Florida, U.S.A.

Now
84 °F

Passing clouds.


Feels Like: 94 °F
Forecast: 82 / 89 °F
Wind: 9 mph from East

Location: Fort Lauderdale / Hollywood International Airport

Current Time: Jul 2, 2015 at 12:11:57 AM

Latest Report: Jul 1, 2015 at 10:53 PM


Visibility: 10 mi

Pressure: 30.13 "Hg

Humidity: 80%

Dew point: 77 °F

Location of Fort LauderdaleLocation

Historic Weather in Fort Lauderdale — Graph

°F

Fort Lauderdale temperature yesterday

Maximum temperature yesterday: 91 °F (at 2:53 PM)
Minimum temperature yesterday: 77 °F (at 2:53 AM)
Average temperature yesterday: 85 °F

Past Weeks' High & Low Weather Summary

 TemperatureHumidityPressure
High93 °F (Jun 29, 1:53 PM)94% (Jun 28, 2:53 PM)30.16 "Hg (Jun 28, 2:53 PM)
Low75 °F (Jun 29, 6:01 PM)52% (Jun 29, 12:53 PM)30.02 "Hg (Jun 27, 4:53 AM)
Average85 °F74%30.09 "Hg
* Reported Jun 16 10:53 PM — Jul 1 10:53 PM, Fort Lauderdale, Weather by CustomWeather, © 2015

Note: Actual official high and low records may vary slightly from our data, if they occured in-between our weather recording intervals... More about our weather records

Advertising

Fort Lauderdale weather history for previous 24 hours

 ConditionsComfort  
Time TempWeatherWind HumidityBarometerVisibility
10:53 PM
Wed, Jul 1
84 °FPassing clouds.9 mph80%30.13 "Hg10 mi
9:53 PM84 °FPassing clouds.7 mph77%30.11 "Hg10 mi
8:53 PM85 °FScattered clouds.6 mph72%30.10 "Hg10 mi
7:53 PM85 °FScattered clouds.8 mph72%30.11 "Hg7 mi
6:53 PM86 °FScattered clouds.13 mph67%30.08 "Hg7 mi
5:53 PM87 °FPassing clouds.10 mph67%30.09 "Hg10 mi
4:53 PM90 °FPassing clouds.10 mph61%30.08 "Hg9 mi
3:53 PM90 °FPassing clouds.10 mph61%30.10 "Hg10 mi
2:53 PM91 °FPassing clouds.9 mph60%30.09 "Hg10 mi
1:53 PM89 °FBroken clouds.13 mph65%30.12 "Hg10 mi
12:53 PM90 °FPartly sunny.13 mph63%30.14 "Hg10 mi
11:53 AM89 °FPartly sunny.13 mph65%30.15 "Hg10 mi
10:53 AM88 °FPassing clouds.10 mph73%30.14 "Hg10 mi
9:53 AM86 °FPartly sunny.10 mph72%30.14 "Hg10 mi
8:53 AM85 °FOvercast.10 mph70%30.14 "Hg10 mi
7:53 AM81 °FMostly cloudy.3 mph77%30.14 "Hg10 mi
6:53 AM79 °FPartly cloudy.6 mph79%30.13 "Hg10 mi
5:53 AM80 °FPassing clouds.No wind79%30.10 "Hg10 mi
4:53 AM79 °FClear.6 mph77%30.09 "Hg10 mi
3:53 AM78 °FClear.No wind74%30.10 "Hg10 mi
2:53 AM77 °FClear.No wind71%30.14 "Hg10 mi
1:53 AM78 °FPassing clouds.3 mph64%30.15 "Hg10 mi
Weather by CustomWeather, © 2015

See weather overviewHow to use our weather pages